Lorain / Elyria, OH

3:01 PM EDT on September 21, 2017 (GMT -0400)
Lorain County Regional

Weather History for KLPR - May, 2013

Change the Weather History Date:

Thursday, May 9, 2013

  Actual Average (KCLE) Record (KCLE)
Temperature  
Mean Temperature 66 °F -  
Max Temperature 80 °F 65 °F 88 °F (1979)
Min Temperature 53 °F 46 °F 29 °F (1983)
Cooling Degree Days 1    
Growing Degree Days 16 (Base 50)    
Moisture  
Dew Point 46 °F    
Average Humidity 54    
Maximum Humidity 93    
Minimum Humidity 19    
Precipitation  
Precipitation 0.00 in - - ()
Sea Level Pressure  
Sea Level Pressure 29.96 in    
Wind  
Wind Speed 4 mph (NE)    
Max Wind Speed 8 mph    
Max Gust Speed -    
Visibility 10 miles    
Events      
Averages and records for this station are not official NWS values.
T = Trace of Precipitation, MM = Missing Value Source: NWS Daily Summary

Daily Weather History Graph

Daily Weather History Graph

Search for Another Location

Airport or City:

Trip Planner

Search our weather history database for the weather conditions in past years. The results will help you decide how hot, cold, wet, or windy it might be!

Date:

Astronomy

May. 09, 2013 Rise Set
Actual Time 6:16 AM EDT 8:34 PM EDT
Civil Twilight 5:45 AM EDT 9:05 PM EDT
Nautical Twilight 5:07 AM EDT 9:44 PM EDT
Astronomical Twilight 4:24 AM EDT 10:26 PM EDT
Moon 6:00 AM EDT (5/9) 8:28 PM EDT (5/9)
Length of Visible Light 15h 20m
Length of Day
14h 18m
Waning Crescent, 0% of the Moon is Illuminated
May 9
Waning Crescent
May 9
New
May 18
First Quarter
May 25
Full
May 31
Last Quarter

Hourly Weather History & Observations

Time (EDT) Temp. Dew Point Humidity Pressure Visibility Wind Dir Wind Speed Gust Speed Precip Events Conditions
12:53 AM 57.9 °F 53.1 °F 84% 29.96 in 10.0 mi West 5.8 mph - N/A   Clear
1:53 AM 59.0 °F 52.0 °F 78% 29.95 in 10.0 mi Calm Calm - N/A   Clear
2:53 AM 57.0 °F 52.0 °F 83% 29.95 in 10.0 mi Calm Calm - N/A   Clear
3:53 AM 54.0 °F 52.0 °F 93% 29.94 in 10.0 mi Calm Calm - N/A   Clear
4:53 AM 54.0 °F 50.0 °F 86% 29.94 in 10.0 mi Calm Calm - N/A   Clear
5:53 AM 53.1 °F 48.9 °F 86% 29.94 in 10.0 mi Calm Calm - N/A   Scattered Clouds
6:53 AM 53.1 °F 50.0 °F 89% 29.97 in 8.0 mi SSE 3.5 mph - N/A   Partly Cloudy
7:53 AM 57.0 °F 52.0 °F 83% 29.99 in 10.0 mi Calm Calm - N/A   Clear
8:53 AM 63.0 °F 52.0 °F 67% 29.99 in 10.0 mi Calm Calm - N/A   Clear
9:53 AM 69.1 °F 52.0 °F 54% 29.98 in 10.0 mi WNW 4.6 mph - N/A   Clear
10:53 AM 73.0 °F 51.1 °F 46% 29.98 in 10.0 mi NNW 8.1 mph - N/A   Clear
11:53 AM 75.0 °F 50.0 °F 41% 29.99 in 10.0 mi North 6.9 mph - N/A   Clear
1:53 PM 78.1 °F 41.0 °F 27% 29.99 in 10.0 mi NW 5.8 mph - N/A   Clear
2:53 PM 79.0 °F 34.0 °F 20% 29.98 in 10.0 mi North 8.1 mph - N/A   Clear
4:53 PM 79.0 °F 34.0 °F 20% 29.95 in 10.0 mi NE 8.1 mph - N/A   Clear
5:53 PM 78.1 °F 33.1 °F 19% 29.94 in 10.0 mi ENE 8.1 mph - N/A   Clear
6:53 PM 75.9 °F 37.0 °F 24% 29.94 in 10.0 mi East 5.8 mph - N/A   Clear
7:53 PM 72.0 °F 41.0 °F 33% 29.95 in 10.0 mi ESE 5.8 mph - N/A   Mostly Cloudy
8:53 PM 70.0 °F 39.0 °F 32% 29.94 in 10.0 mi SE 5.8 mph - N/A   Clear
10:53 PM 66.0 °F 42.1 °F 42% 29.94 in 10.0 mi South 4.6 mph - N/A   Clear
11:53 PM 68.0 °F 39.9 °F 36% 29.94 in 10.0 mi South 6.9 mph - N/A   Overcast